Location: Bu�n Treun
(12.1333°N, 108.3167°E)
Time: 23:45:47
(UTC+00:00)

Meteor 2-10 Rocket - Pass Details

Date: 13 July 2020
Orbit: 734 x 884 km, 81.2° (Epoch: 14 August)

Event Time Altitude Azimuth Distance (km) Brightness Sun altitude
Rises 13:02:07 0° 350° (N) 3,297 7.4 -24.1°
Reaches altitude 10° 13:04:28 10° 348° (NNW) 2,390 6.6 -24.6°
Maximum altitude 13:09:51 70° 265° (W) 882 3.8 -25.7°
Enters shadow 13:11:44 42° 195° (SSW) 1,186 4.3 -26.1°
